"Pseudo-MPEC" for C1HMQ72

Created 2019 Dec 7 12:07:09 UT using Find_Orb

Click here for an explanation of pseudo-MPECs

 
 Astrometry: 
     C1HMQ72  C2019 12 02.42822 08 47 37.48 +33 36 31.1    ~C2B7 21.7 GVNEOCPG96
     C1HMQ72  C2019 12 02.43859 08 47 34.92 +33 36 10.8    ~C2B7 21.6 GVNEOCPG96
     C1HMQ72  C2019 12 02.44377 08 47 33.67 +33 36 01.5    ~C2B7 21.5 GVNEOCPG96
     C1HMQ72  C2019 12 02.46391 08 47 28.71 +33 35 22.4    ~C2Bb 21.5 GVNEOCPV06
     C1HMQ72  C2019 12 02.46708 08 47 27.95 +33 35 16.3    ~C2Bb 22.3 GVNEOCPV06
     C1HMQ72  C2019 12 02.47025 08 47 27.16 +33 35 10.0    ~C2Bb 21.8 GVNEOCPV06
     C1HMQ72  C2019 12 02.47342 08 47 26.35 +33 35 03.7    ~C2Bb 21.9 GVNEOCPV06
     C1HMQ72  C2019 12 03.41803 08 43 52.33 +33 04 28.3    ~C3Ab 21.2 GVNEOCPG96
     C1HMQ72  C2019 12 03.41947 08 43 52.00 +33 04 26.8    ~C3Ab 21.7 GVNEOCPG96
     C1HMQ72  C2019 12 03.42092 08 43 51.65 +33 04 22.5    ~C3Ab 21.5 GVNEOCPG96
     C1HMQ72  C2019 12 03.42237 08 43 51.29 +33 04 20.2    ~C3Ab 22.1 GVNEOCPG96
     C1HMQ72  C2019 12 03kVJJUa?eDwR8GMwAstrometry!MRD=X@K_6%5#E6G6GK:fYA0Vs$F52
     C1HMQ72  C2019 12 03GYNR#kdwqI3v_kuulfvqx^:?np9KN:KbhWe4A=+E*[*u0YgvV9WTF52
     C1HMQ72  C2019 12 03wqNkAgpp'AXoRw)N:hsy#Wredacted;tclick4jdUA/Rl]w4hereF52
     C1HMQ72 KC2019 12 07Jn^+ipvm^Jbwa*.5rxQ6S`2b8$EjlI8PT'.WnF'0'XKef`]?lsrRH21
     C1HMQ72 KC2019 12 07+ZEdYiforV\'a6bax@/E!sLZD7_N?+!k7a%6K8%[t,vdI8ciGbjAH21
     C1HMQ72  C2019 12 07.38482 08 29 06.86 +31 00 08.1    ~C79q 21.6 GVNEOCPG96
     C1HMQ72  C2019 12 07.38645 08 29 06.47 +31 00 05.6    ~C79q 21.8 GVNEOCPG96
     C1HMQ72  C2019 12 07.38807 08 29 06.07 +31 00 02.6    ~C79q 22.0 GVNEOCPG96
     C1HMQ72  C2019 12 07.38970 08 29 05.69 +31 00 00.1    ~C79q 22.0 GVNEOCPG96
     C1HMQ72 KC2019 12 07h$?Y%X-x=bDUIIENKd61`!Zx#HunLnexplanation'+M4^jP\y+EH21

Station data:
(F52) Pan-STARRS 2, Haleakala  (N20.707384 W156.255910)  US/Hawaii. 1.8-m
   Ritchey-Chrétien + CCD.
(G96) Mt. Lemmon Survey  (N32.442754 W110.788720)  US/Arizona.  Observers T.
   A. Pruyne, B. M. Africano, E. J. Christensen, G. A. Farneth, D. C. Fuls,
   A. R. Gibbs, A. D. Grauer, H. Gröller, J. A. Johnson, R. A. Kowalski, S.
   M. Larson, G. J. Leonard, D. Rankin, R. L. Seaman, F. C. Shelly. 1.5-m
   reflector + 10K CCD.
(H21) Astronomical Research Observatory, Westfield  (N39.483057 W87.968270)
   US/Illinois. 0.76-m f/3.0 astrograph + CCD.
(V06) Catalina Sky Survey-Kuiper  (N32.416847 W110.732550)  US/Arizona.
   Observers T. A. Pruyne, B. M. Africano, E. J. Christensen, G. A. Farneth,
   D. C. Fuls, A. R. Gibbs, A. D. Grauer, H. Gröller, J. A. Johnson, R. A.
   Kowalski, S. M. Larson, G. J. Leonard, D. Rankin, R. L. Seaman, F. C.
   Shelly. 1.55-m reflector + CCD.

Orbital elements:  C1HMQ72
   Perihelion 2019 Oct 11.298277 +/- 0.0555 TT =  7:09:31 (JD 2458767.798277)
Epoch 2019 Dec  7.0 TT = JDT 2458824.5   Earth MOID: 0.0896   Ma: 0.0371
M  25.04172729 +/- 0.29             (J2000 ecliptic)          AutoNEOCP
n   0.44163961 +/- 0.00553          Peri.   98.04516 +/- 0.07
a   1.70774896 +/- 0.0143           Node   279.06861 +/- 0.022
e   0.4534570 +/- 0.00496           Incl.    7.64761 +/- 0.10
P   2.23/815.13d           H 23.5   G  0.15   U  9.3  
q 0.93335817 +/- 0.000679    Q 2.48213975 +/- 0.0288
From 21 observations 2019 Dec. 2-7; mean residual 0".26
Residuals in arcseconds: 
191202 G96  .27-  .03-    191203 G96  .09-  .20-    191207 H21  .02+  .17-    
191202 G96  .37-  .42-    191203 G96  .18+  1.0+    191207 H21  .10-  .03+    
191202 G96  .04-  .25+    191203 G96  .22+  .54-    191207 G96  .22+  .25-    
191202 V06  .06+  .11+    191203 G96  .14+  .10-    191207 G96  .14+  .17+    
191202 V06  .34+  .17+    191203 F52  .24-  .21-    191207 G96  .10-  .06+    
191202 V06  .24+  .04+    191203 F52  .19+  .06+    191207 G96  .06-  .47+    
191202 V06  .11-  .08-    191203 F52  .21-  .06-    191207 H21  .10-  .23-    

Ephemerides (geocentric):
Date (UTC) HH   RA              Dec         delta   r     elong  mag " sig PA
---- -- -- --  -------------   -----------  ------ ------ -----  --- ---- ---
2019 12 07 12  08 28 40.455   +30 56 40.21  .21672 1.1411 131.8 22.0 .160 124
2019 12 07 13  08 28 31.307   +30 55 24.12  .21683 1.1414 131.9 22.0 .168 127
2019 12 07 14  08 28 22.163   +30 54 08.08  .21694 1.1416 132.0 22.0 .177 128
2019 12 07 15  08 28 13.022   +30 52 52.08  .21705 1.1419 132.0 22.0 .187 130
2019 12 07 16  08 28 03.884   +30 51 36.12  .21716 1.1422 132.1 22.0 .196 132
2019 12 07 17  08 27 54.749   +30 50 20.21  .21728 1.1424 132.2 22.0 .206 133
2019 12 07 18  08 27 45.617   +30 49 04.34  .21739 1.1427 132.2 22.0 .217 134
2019 12 07 19  08 27 36.489   +30 47 48.52  .21750 1.1429 132.3 22.0 .227 136
2019 12 07 20  08 27 27.364   +30 46 32.75  .21761 1.1432 132.4 22.0 .238 137
2019 12 07 21  08 27 18.242   +30 45 17.02  .21772 1.1434 132.5 22.0 .249 138
2019 12 07 22  08 27 09.123   +30 44 01.34  .21783 1.1437 132.5 22.0 .260 138
2019 12 07 23  08 27 00.007   +30 42 45.70  .21794 1.1439 132.6 22.0 .272 139
2019 12 08 00  08 26 50.894   +30 41 30.11  .21805 1.1442 132.7 22.0 .284 140
2019 12 08 01  08 26 41.785   +30 40 14.56  .21817 1.1444 132.7 22.0 .296 141
2019 12 08 02  08 26 32.679   +30 38 59.06  .21828 1.1447 132.8 22.0 .308 141
2019 12 08 03  08 26 23.576   +30 37 43.60  .21839 1.1450 132.9 22.0 .320 142
2019 12 08 04  08 26 14.476   +30 36 28.19  .21850 1.1452 133.0 22.0 .333 143
2019 12 08 05  08 26 05.380   +30 35 12.83  .21862 1.1455 133.0 22.0 .346 143
2019 12 08 06  08 25 56.286   +30 33 57.51  .21873 1.1457 133.1 22.0 .359 144
2019 12 08 07  08 25 47.196   +30 32 42.23  .21884 1.1460 133.2 22.0 .372 144
2019 12 08 08  08 25 38.110   +30 31 27.01  .21896 1.1462 133.3 22.0 .385 144
2019 12 08 09  08 25 29.026   +30 30 11.82  .21907 1.1465 133.3 22.0 .399 145
2019 12 08 10  08 25 19.946   +30 28 56.69  .21918 1.1467 133.4 22.0 .412 145
2019 12 08 11  08 25 10.868   +30 27 41.60  .21930 1.1470 133.5 22.0 .426 145
2019 12 08 12  08 25 01.795   +30 26 26.56  .21941 1.1472 133.5 22.0 .440 146
2019 12 08 13  08 24 52.724   +30 25 11.56  .21952 1.1475 133.6 22.0 .455 146
2019 12 08 14  08 24 43.657   +30 23 56.61  .21964 1.1478 133.7 22.0 .469 146
2019 12 08 15  08 24 34.593   +30 22 41.70  .21975 1.1480 133.8 22.0 .484 146
2019 12 08 16  08 24 25.532   +30 21 26.84  .21987 1.1483 133.8 22.0 .499 147
2019 12 08 17  08 24 16.474   +30 20 12.03  .21998 1.1485 133.9 22.0 .514 147
2019 12 08 18  08 24 07.420   +30 18 57.26  .22009 1.1488 134.0 22.0 .529 147
2019 12 08 19  08 23 58.369   +30 17 42.54  .22021 1.1490 134.0 22.0 .544 147
2019 12 08 20  08 23 49.321   +30 16 27.86  .22032 1.1493 134.1 22.0 .560 147
2019 12 08 21  08 23 40.277   +30 15 13.23  .22044 1.1496 134.2 22.0 .576 148
2019 12 08 22  08 23 31.236   +30 13 58.65  .22055 1.1498 134.3 22.0 .592 148
2019 12 08 23  08 23 22.198   +30 12 44.12  .22067 1.1501 134.3 22.0 .608 148
2019 12 09 00  08 23 13.164   +30 11 29.63  .22079 1.1503 134.4 22.0 .624 148
2019 12 09 01  08 23 04.133   +30 10 15.18  .22090 1.1506 134.5 22.0 .640 148
2019 12 09 02  08 22 55.105   +30 09 00.79  .22102 1.1508 134.6 22.0 .657 148
2019 12 09 03  08 22 46.081   +30 07 46.43  .22113 1.1511 134.6 22.0 .674 148
2019 12 09 04  08 22 37.060   +30 06 32.13  .22125 1.1513 134.7 22.0 .691 148
2019 12 09 05  08 22 28.042   +30 05 17.87  .22137 1.1516 134.8 22.0 .708 148
2019 12 09 06  08 22 19.027   +30 04 03.66  .22148 1.1519 134.8 22.0 .725 148
2019 12 09 07  08 22 10.016   +30 02 49.50  .22160 1.1521 134.9 22.0 .742 148
2019 12 09 08  08 22 01.009   +30 01 35.38  .22172 1.1524 135.0 22.0 .760 148
2019 12 09 09  08 21 52.004   +30 00 21.31  .22183 1.1526 135.1 22.0 .778 149
2019 12 09 10  08 21 43.004   +29 59 07.29  .22195 1.1529 135.1 22.0 .796 149
2019 12 09 11  08 21 34.006   +29 57 53.31  .22207 1.1531 135.2 22.0 .814 149